Tracking 28790 objects as of 19-Apr-2024
HD Live streaming from Space Station
objects crossing your sky now

ATLAS CENTAUR R/B

Track ATLAS CENTAUR R/B now!
10-day predictions


NORAD ID: 12445
Int'l Code: 1980-098B
Perigee: 338.6 km
Apogee: 9,881.7 km
Inclination: 23.7 °
Period: 204.1 minutes
Semi major axis: 11481 km
RCS: 18.4993 m2 (large)
Launch date: December 6, 1980
Source: United States (US)
Launch site: AIR FORCE EASTERN TEST RANGE (AFETR)

Note: This is a ROCKET BODY
Your satellite tracking list
Your tracking list is empty




NASA's NSSDC Master Catalog

Two Line Element Set (TLE):
1 12445U 80098B   24110.52959669  .00010272  00000-0  17147-2 0  9994
2 12445  23.6546 300.3094 4155949 205.9640 125.4477  7.05707190  7942
Source of the keplerian elements: AFSPC